Weather History for Stevens Point, WI

Change the Weather History Date:

Wednesday, November 12, 2014

  Actual Average Record
Temperature  
Mean Temperature 18 °F -  
Max Temperature 21 °F 40 °F 70 °F (1964)
Min Temperature 15 °F 25 °F 10 °F (1976)
Degree Days  
Heating Degree Days 47    
Moisture  
Dew Point 14 °F    
Average Humidity 83    
Maximum Humidity 90    
Minimum Humidity 73    
Precipitation  
Precipitation 0.00 in - - ()
Sea Level Pressure  
Sea Level Pressure 30.20 in    
Wind  
Wind Speed 8 mph (West)    
Max Wind Speed 15 mph    
Max Gust Speed 20 mph    
Visibility 10 miles    
Events Snow    
Averages and records for this station are not official NWS values.
T = Trace of Precipitation, MM = Missing Value Source: NWS Daily Summary

Daily Weather History Graph

Daily Weather History Graph

Search for Another Location

Airport:

Trip Planner

Search our weather history database for the weather conditions in past years. The results will help you decide how hot, cold, wet, or windy it might be!

Date:

Astronomy

Nov. 12, 2014 Rise Set
Actual Time 6:50 AM CST 4:33 PM CST
Civil Twilight 6:19 AM CST 5:04 PM CST
Nautical Twilight 5:44 AM CST 5:39 PM CST
Astronomical Twilight 5:09 AM CST 6:14 PM CST
Moon 9:55 PM CST (11/12) 11:35 AM CST (11/12)
Length of Visible Light 10h 45m
Length of Day
9h 42m
Waning Gibbous, 68% of the Moon is Illuminated
Nov 12
Waning Gibbous
Nov 14
Last Quarter
Nov 22
New
Nov 29
First Quarter
Dec 6
Full

Hourly Weather History & Observations

Time (CST) Temp. Windchill Dew Point Humidity Pressure Visibility Wind Dir Wind Speed Gust Speed Precip Events Conditions
12:15 AM 16.7 °F 8.3 °F 13.1 °F 86% 30.11 in 10.0 mi West 5.8 mph - N/A   Scattered Clouds
12:35 AM 16.7 °F 6.2 °F 13.1 °F 86% 30.11 in 10.0 mi WNW 8.1 mph - N/A   Scattered Clouds
12:55 AM 16.2 °F 7.6 °F 12.9 °F 87% 30.11 in 10.0 mi West 5.8 mph - N/A   Clear
1:15 AM 15.8 °F 4.2 °F 12.7 °F 88% 30.13 in 10.0 mi West 9.2 mph - N/A   Clear
1:35 AM 15.8 °F 6.1 °F 12.7 °F 88% 30.13 in 10.0 mi WNW 6.9 mph - N/A   Clear
1:55 AM 15.8 °F 5.1 °F 12.7 °F 88% 30.13 in 10.0 mi West 8.1 mph - N/A   Clear
2:15 AM 15.8 °F 5.1 °F 12.7 °F 88% 30.14 in 10.0 mi WNW 8.1 mph - N/A   Clear
2:35 AM 16.0 °F 4.4 °F 12.7 °F 87% 30.15 in 10.0 mi West 9.2 mph - N/A   Mostly Cloudy
2:55 AM 16.7 °F 7.2 °F 13.1 °F 86% 30.15 in 10.0 mi West 6.9 mph - N/A   Overcast
3:15 AM 17.1 °F 5.8 °F 13.5 °F 86% 30.15 in 10.0 mi West 9.2 mph - N/A   Overcast
3:35 AM 17.4 °F 7.1 °F 13.8 °F 86% 30.16 in 10.0 mi West 8.1 mph - N/A   Overcast
3:55 AM 17.8 °F 8.5 °F 14.0 °F 85% 30.15 in 10.0 mi West 6.9 mph - N/A   Overcast
4:15 AM 18.0 °F 8.7 °F 14.0 °F 84% 30.16 in 10.0 mi West 6.9 mph - N/A   Overcast
4:35 AM 17.4 °F 10.4 °F 13.8 °F 86% 30.16 in 10.0 mi WNW 4.6 mph - N/A   Scattered Clouds
4:55 AM 16.7 °F 7.2 °F 13.3 °F 86% 30.16 in 10.0 mi West 6.9 mph - N/A   Scattered Clouds
5:15 AM 16.7 °F 6.2 °F 13.5 °F 87% 30.16 in 10.0 mi WNW 8.1 mph - N/A   Overcast
5:35 AM 16.7 °F 3.8 °F 13.6 °F 88% 30.17 in 10.0 mi West 11.5 mph 16.1 mph N/A   Overcast
5:55 AM 16.5 °F 8.1 °F 14.0 °F 90% 30.17 in 10.0 mi WNW 5.8 mph - N/A   Overcast
6:15 AM 16.7 °F 6.2 °F 14.0 °F 89% 30.17 in 10.0 mi WNW 8.1 mph - N/A   Overcast
6:35 AM 16.5 °F 8.1 °F 13.8 °F 89% 30.17 in 10.0 mi WNW 5.8 mph - N/A   Overcast
6:55 AM 16.7 °F 8.3 °F 13.6 °F 88% 30.17 in 10.0 mi WNW 5.8 mph - N/A   Overcast
7:15 AM 16.7 °F 7.2 °F 13.6 °F 88% 30.17 in 10.0 mi WNW 6.9 mph - N/A   Overcast
7:35 AM 16.7 °F 7.2 °F 14.0 °F 89% 30.18 in 10.0 mi West 6.9 mph - N/A   Overcast
7:55 AM 16.7 °F 8.3 °F 13.6 °F 88% 30.18 in 10.0 mi WNW 5.8 mph - N/A   Overcast
8:15 AM 17.2 °F 5.2 °F 14.0 °F 87% 30.19 in 10.0 mi West 10.4 mph 18.4 mph N/A   Overcast
8:35 AM 17.4 °F 8.0 °F 13.8 °F 86% 30.18 in 10.0 mi WNW 6.9 mph - N/A   Overcast
8:55 AM 17.4 °F 8.0 °F 13.5 °F 84% 30.19 in 10.0 mi West 6.9 mph - N/A   Overcast
9:15 AM 17.6 °F 5.7 °F 14.0 °F 86% 30.19 in 10.0 mi WNW 10.4 mph - N/A   Overcast
9:35 AM 18.0 °F 8.7 °F 14.0 °F 84% 30.20 in 10.0 mi West 6.9 mph - N/A   Overcast
9:55 AM 17.8 °F 7.5 °F 13.8 °F 84% 30.21 in 10.0 mi West 8.1 mph 16.1 mph N/A   Overcast
10:15 AM 18.3 °F 4.1 °F 14.2 °F 84% 30.21 in 10.0 mi West 15.0 mph 19.6 mph N/A   Overcast
10:35 AM 18.1 °F 6.3 °F 13.8 °F 83% 30.21 in 10.0 mi West 10.4 mph 16.1 mph N/A   Overcast
10:55 AM 18.3 °F 5.2 °F 13.5 °F 81% 30.21 in 10.0 mi West 12.7 mph 18.4 mph N/A   Overcast
11:15 AM 18.1 °F 5.0 °F 13.3 °F 81% 30.20 in 10.0 mi West 12.7 mph 16.1 mph N/A   Overcast
11:55 AM 18.5 °F 8.4 °F 14.0 °F 83% 30.20 in 10.0 mi West 8.1 mph 17.3 mph N/A   Overcast
12:15 PM 19.2 °F 8.4 °F 14.0 °F 80% 30.20 in 10.0 mi West 9.2 mph - N/A   Overcast
12:35 PM 19.8 °F 7.7 °F 14.4 °F 80% 30.20 in 10.0 mi West 11.5 mph 16.1 mph N/A   Overcast
12:55 PM 20.3 °F 9.0 °F 14.0 °F 77% 30.20 in 10.0 mi West 10.4 mph 16.1 mph N/A   Overcast
1:15 PM 21.0 °F 9.3 °F 14.5 °F 76% 30.20 in 10.0 mi West 11.5 mph 16.1 mph N/A   Overcast
1:35 PM 21.2 °F 13.6 °F 14.5 °F 75% 30.20 in 10.0 mi WNW 5.8 mph 16.1 mph N/A   Overcast
1:55 PM 21.0 °F 9.9 °F 14.0 °F 74% 30.20 in 10.0 mi WNW 10.4 mph - N/A   Overcast
2:15 PM 21.0 °F 9.9 °F 13.6 °F 73% 30.20 in 10.0 mi West 10.4 mph 16.1 mph N/A   Overcast
2:35 PM 20.8 °F 9.7 °F 13.3 °F 73% 30.20 in 10.0 mi NW 10.4 mph - N/A   Overcast
2:55 PM 20.8 °F 12.1 °F 14.2 °F 75% 30.20 in 10.0 mi West 6.9 mph - N/A   Overcast
3:15 PM 20.7 °F 9.5 °F 14.0 °F 75% 30.21 in 10.0 mi West 10.4 mph - N/A   Overcast
3:35 PM 20.3 °F 7.7 °F 14.0 °F 77% 30.22 in 10.0 mi NW 12.7 mph 19.6 mph N/A Snow Light Snow
3:55 PM 20.3 °F 8.3 °F 13.1 °F 74% 30.22 in 10.0 mi West 11.5 mph 17.3 mph N/A   Overcast
4:15 PM 20.3 °F 11.5 °F 13.1 °F 74% 30.22 in 10.0 mi WNW 6.9 mph - N/A Snow Light Snow
4:35 PM 20.1 °F 8.8 °F 14.0 °F 77% 30.22 in 7.0 mi West 10.4 mph - N/A Snow Light Snow
4:55 PM 20.3 °F 11.5 °F 13.5 °F 75% 30.23 in 10.0 mi West 6.9 mph - N/A   Overcast
5:15 PM 20.7 °F 11.9 °F 13.8 °F 75% 30.23 in 10.0 mi West 6.9 mph - N/A Snow Light Snow
5:35 PM 20.5 °F 10.0 °F 14.2 °F 77% 30.24 in 10.0 mi WSW 9.2 mph - N/A Snow Light Snow
5:55 PM 20.3 °F 10.6 °F 14.0 °F 77% 30.24 in 10.0 mi West 8.1 mph - N/A Snow Light Snow
6:15 PM 20.3 °F 10.6 °F 14.7 °F 79% 30.24 in 10.0 mi West 8.1 mph - N/A Snow Light Snow
6:35 PM 20.3 °F 12.5 °F 14.9 °F 80% 30.24 in 10.0 mi West 5.8 mph - N/A Snow Light Snow
6:55 PM 20.3 °F 10.6 °F 15.4 °F 81% 30.23 in 10.0 mi WSW 8.1 mph - N/A Snow Light Snow
7:15 PM 20.3 °F 9.8 °F 15.4 °F 81% 30.23 in 10.0 mi West 9.2 mph - N/A   Overcast
7:35 PM 20.1 °F 10.3 °F 15.3 °F 81% 30.23 in 10.0 mi West 8.1 mph - N/A   Overcast
7:55 PM 19.4 °F 8.6 °F 15.3 °F 84% 30.23 in 10.0 mi West 9.2 mph - N/A   Mostly Cloudy
8:15 PM 19.4 °F 10.4 °F 15.6 °F 85% 30.24 in 10.0 mi West 6.9 mph - N/A   Scattered Clouds
8:35 PM 19.0 °F 10.0 °F 15.3 °F 85% 30.24 in 10.0 mi West 6.9 mph - N/A   Scattered Clouds
8:55 PM 18.5 °F 11.7 °F 15.3 °F 87% 30.24 in 10.0 mi WNW 4.6 mph - N/A   Mostly Cloudy
9:15 PM 18.7 °F 9.5 °F 15.1 °F 86% 30.24 in 10.0 mi West 6.9 mph - N/A   Overcast
9:35 PM 18.5 °F 11.7 °F 14.9 °F 86% 30.24 in 10.0 mi WNW 4.6 mph - N/A   Mostly Cloudy
9:55 PM 17.8 °F 9.6 °F 14.7 °F 88% 30.24 in 10.0 mi WNW 5.8 mph - N/A   Mostly Cloudy
10:15 PM 17.6 °F 12.3 °F 14.5 °F 88% 30.24 in 10.0 mi WNW 3.5 mph - N/A   Mostly Cloudy
10:35 PM 17.2 °F 11.9 °F 14.0 °F 87% 30.23 in 10.0 mi West 3.5 mph - N/A   Mostly Cloudy
10:55 PM 16.7 °F 9.6 °F 14.0 °F 89% 30.23 in 10.0 mi West 4.6 mph - N/A   Scattered Clouds
11:15 PM 16.3 °F - 13.8 °F 90% 30.23 in 10.0 mi Calm Calm - N/A   Scattered Clouds
11:35 PM 16.3 °F 10.8 °F 13.8 °F 90% 30.23 in 10.0 mi West 3.5 mph - N/A   Clear
11:55 PM 16.2 °F 9.0 °F 13.8 °F 90% 30.23 in 10.0 mi West 4.6 mph - N/A   Scattered Clouds